Salina, KS

1:31 PM CST on February 26, 2017 (GMT -0600)
Salina Municipal

Weather History for KSLN - April, 2014

Change the Weather History Date:

Thursday, April 24, 2014

  Actual Average Record
Temperature  
Mean Temperature 58 °F 58 °F  
Max Temperature 71 °F 70 °F 96 °F (1989)
Min Temperature 44 °F 46 °F 23 °F (2013)
Degree Days  
Heating Degree Days 7 8  
Month to date heating degree days 260 275  
Since 1 July heating degree days 5245 4725  
Cooling Degree Days 0 1  
Month to date cooling degree days 24 16  
Year to date cooling degree days 24 18  
Growing Degree Days 10 (Base 50)    
Moisture  
Dew Point 48 °F    
Average Humidity 57    
Maximum Humidity 86    
Minimum Humidity 28    
Precipitation  
Precipitation 0.71 in 0.11 in 1.17 in (2007)
Month to date precipitation 0.93 2.36  
Year to date precipitation 3.04 6.55  
Sea Level Pressure  
Sea Level Pressure 29.70 in    
Wind  
Wind Speed 15 mph (NW)    
Max Wind Speed 23 mph    
Max Gust Speed 33 mph    
Visibility 8 miles    
Events Rain , Thunderstorm    
T = Trace of Precipitation, MM = Missing Value Source: NWS Daily Summary

Daily Weather History Graph

Daily Weather History Graph

Search for Another Location

Airport or City:

Trip Planner

Search our weather history database for the weather conditions in past years. The results will help you decide how hot, cold, wet, or windy it might be!

Date:

Astronomy

Apr. 24, 2014 Rise Set
Actual Time 6:41 AM CDT 8:16 PM CDT
Civil Twilight 6:13 AM CDT 8:44 PM CDT
Nautical Twilight 5:39 AM CDT 9:18 PM CDT
Astronomical Twilight 5:03 AM CDT 9:54 PM CDT
Moon 3:50 AM CDT (4/24) 3:36 PM CDT (4/24)
Length of Visible Light 14h 30m
Length of Day
13h 34m
Waning Crescent, 24% of the Moon is Illuminated
Apr 24
Waning Crescent
Apr 29
New
May 6
First Quarter
May 14
Full
May 21
Last Quarter

Hourly Weather History & Observations

Time (CDT) Temp. Dew Point Humidity Pressure Visibility Wind Dir Wind Speed Gust Speed Precip Events Conditions
12:53 AM 71.1 °F 52.0 °F 51% 29.49 in 10.0 mi South 15.0 mph 25.3 mph N/A   Partly Cloudy
1:53 AM 69.1 °F 51.1 °F 53% 29.58 in 10.0 mi WNW 19.6 mph 27.6 mph N/A   Clear
1:58 AM 69.1 °F 51.1 °F 53% 29.62 in 10.0 mi NW 21.9 mph 29.9 mph N/A   Partly Cloudy
2:43 AM 71.1 °F 53.1 °F 53% 29.62 in 10.0 mi SW 17.3 mph 28.8 mph N/A Thunderstorm Overcast
2:53 AM 71.1 °F 53.1 °F 53% 29.57 in 10.0 mi WSW 12.7 mph 25.3 mph N/A Thunderstorm Overcast
3:27 AM 62.6 °F 51.8 °F 68% 29.59 in 9.0 mi North 19.6 mph 27.6 mph N/A   Overcast
3:37 AM 60.1 °F 53.1 °F 78% 29.59 in 7.0 mi North 15.0 mph 25.3 mph 0.02 in Thunderstorm Thunderstorm
3:53 AM 57.9 °F 53.1 °F 84% 29.57 in 2.5 mi North 10.4 mph - 0.17 in Thunderstorm Unknown
4:02 AM 57.0 °F 54.0 °F 89% 29.63 in 1.2 mi NW 17.3 mph 24.2 mph 0.22 in Thunderstorm Overcast
4:08 AM 57.0 °F 54.0 °F 89% 29.66 in 1.5 mi NW 24.2 mph 28.8 mph 0.28 in Thunderstorm Overcast
4:18 AM 57.0 °F 55.0 °F 93% 29.67 in 2.0 mi NNW 17.3 mph - 0.38 in Thunderstorm Overcast
4:22 AM 57.0 °F 55.0 °F 93% 29.67 in 3.0 mi NNW 17.3 mph - 0.39 in Thunderstorm Overcast
4:35 AM 57.9 °F 55.0 °F 90% 29.66 in 4.0 mi NNW 18.4 mph - 0.42 in Thunderstorm Overcast
4:44 AM 57.9 °F 55.0 °F 90% 29.67 in 3.0 mi NW 17.3 mph - 0.46 in Thunderstorm Overcast
4:53 AM 57.9 °F 55.0 °F 90% 29.63 in 4.0 mi NNW 12.7 mph - 0.47 in   Overcast
5:25 AM 57.9 °F 55.0 °F 90% 29.65 in 10.0 mi NNW 16.1 mph - N/A   Overcast
5:50 AM 57.2 °F 53.6 °F 88% 29.66 in 10.0 mi NNW 17.3 mph - 0.01 in   Overcast
5:53 AM 57.0 °F 54.0 °F 89% 29.63 in 10.0 mi NNW 20.7 mph - 0.01 in   Overcast
6:23 AM 55.9 °F 52.0 °F 87% 29.68 in 10.0 mi NNW 12.7 mph - N/A   Overcast
6:53 AM 55.0 °F 51.1 °F 86% 29.65 in 10.0 mi NNW 12.7 mph - N/A   Overcast
7:53 AM 55.0 °F 48.9 °F 80% 29.66 in 10.0 mi NNW 23.0 mph 28.8 mph 0.00 in   Overcast
8:53 AM 55.0 °F 48.0 °F 77% 29.74 in 10.0 mi WNW 21.9 mph - N/A Thunderstorm Overcast
9:14 AM 54.0 °F 48.0 °F 80% 29.72 in 9.0 mi NNW 19.6 mph - 0.03 in Rain Light Rain
9:53 AM 54.0 °F 48.0 °F 80% 29.70 in 9.0 mi NNW 17.3 mph - 0.06 in Rain Light Rain
10:53 AM 57.0 °F 48.0 °F 72% 29.76 in 10.0 mi NNW 18.4 mph - 0.00 in   Mostly Cloudy
11:53 AM 55.9 °F 46.0 °F 69% 29.78 in 10.0 mi NW 21.9 mph 27.6 mph 0.00 in   Overcast
12:53 PM 60.1 °F 46.0 °F 60% 29.79 in 10.0 mi NW 20.7 mph - 0.00 in   Overcast
1:53 PM 61.0 °F 41.0 °F 48% 29.79 in 10.0 mi NNW 21.9 mph 33.4 mph N/A   Overcast
2:53 PM 63.0 °F 41.0 °F 45% 29.80 in 10.0 mi NNW 17.3 mph 25.3 mph N/A   Mostly Cloudy
3:53 PM 69.1 °F 39.9 °F 35% 29.80 in 10.0 mi NNW 17.3 mph 27.6 mph N/A   Clear
4:53 PM 70.0 °F 36.0 °F 29% 29.80 in 10.0 mi North 23.0 mph 28.8 mph N/A   Clear
5:53 PM 70.0 °F 36.0 °F 29% 29.81 in 10.0 mi NNW 16.1 mph - N/A   Clear
6:53 PM 66.9 °F 39.0 °F 36% 29.81 in 10.0 mi North 9.2 mph - N/A   Clear
7:53 PM 64.9 °F 42.1 °F 43% 29.83 in 10.0 mi WNW 3.5 mph - N/A   Clear
8:53 PM 54.0 °F 42.1 °F 64% 29.85 in 10.0 mi South 3.5 mph - N/A   Clear
9:53 PM 53.1 °F 39.9 °F 61% 29.87 in 10.0 mi SSE 5.8 mph - N/A   Clear
10:53 PM 48.0 °F 39.9 °F 74% 29.88 in 10.0 mi South 4.6 mph - N/A   Clear
11:53 PM 46.9 °F 39.0 °F 74% 29.88 in 10.0 mi South 8.1 mph - N/A   Clear